This demonstration page uses our WeatherBlox Daily Observations layout. Learn more.

Left ArrowRight Arrow

39.01783, -85.05884

Hourly Observations for March 27, 2020

Temp ( °F °C ) Dew Point ( °F °C ) Humidity (%) Winds ( mph kmh ) Pressure ( in mb ) Visibility ( mi km ) Precip ( " mm )
12:52 am 00:52 Cloudy 60 15.6 53 11.7 78 78 N 12 19 29.77 1008 10 16 0.00 0.00
1:52 am 01:52 Cloudy 58 14.4 52 11.1 81 81 N 10 17 29.78 1009 10 16 0.00 0.00
2:52 am 02:52 Cloudy 58 14.4 52 11.1 81 81 NNE 7 11 29.79 1009 10 16 0.00 0.00
3:52 am 03:52 Cloudy 56 13.3 51 10.6 84 84 ENE 6 9 29.78 1009 10 16 0.00 0.00
4:52 am 04:52 Cloudy 57 13.9 52 11.1 83 83 ENE 9 15 29.79 1009 10 16 0.00 0.00
5:52 am 05:52 Cloudy 57 13.9 52 11.1 83 83 ENE 9 15 29.81 1010 9 14 0.00 0.00
6:52 am 06:52 Mostly Cloudy 56 13.3 51 10.6 84 84 ENE 10 17 29.80 1009 8 13 0.00 0.00
7:43 am 07:43 Cloudy with Rain 55 12.8 52 11.1 90 90 SSE 7 11 29.88 1012 4 6 0.04 1.02
7:52 am 07:52 Cloudy with Rain 55 12.8 52 11.1 90 90 Calm 29.87 1012 4 6 0.07 1.78
8:30 am 08:30 Cloudy with Rain 55 12.8 52 11.1 90 90 ESE 6 9 29.86 1011 3 4 0.08 2.03
8:52 am 08:52 Mostly Cloudy with Light Rain 55 12.8 53 11.7 93 93 E 8 13 29.84 1010 3 5 0.10 2.54
9:52 am 09:52 Cloudy with Mist and Fog 56 13.3 53 11.7 90 90 ENE 9 15 29.85 1011 3 5 0.00 0.00
10:52 am 10:52 Cloudy with Mist and Fog 57 13.9 53 11.7 87 87 ENE 9 15 29.85 1011 5 8 0.00 0.00
11:43 am 11:43 Cloudy with Mist and Fog 59 15 55 12.8 87 87 ESE 12 19 29.83 1010 6 10 0.00 0.00
11:52 am 11:52 Cloudy 59 15 55 12.8 87 87 SE 10 17 29.82 1010 7 11 0.00 0.00
12:52 pm 12:52 Partly Cloudy 66 18.9 58 14.4 75 75 SSE 10 17 29.80 1009 10 16 0.00 0.00
1:52 pm 13:52 Mostly Cloudy 71 21.7 60 15.6 68 68 S 8 13 29.78 1009 10 16 0.00 0.00
2:52 pm 14:52 Cloudy 73 22.8 58 14.4 59 59 Calm 29.79 1009 10 16 0.00 0.00
3:52 pm 15:52 Mostly Cloudy 70 21.1 59 15 68 68 N 14 22 29.80 1009 9 14 0.00 0.00
4:52 pm 16:52 Cloudy 68 20 57 13.9 68 68 NE 9 15 29.79 1009 10 16 0.00 0.00
5:52 pm 17:52 Cloudy 68 20 57 13.9 68 68 NE 10 17 29.79 1009 10 16 0.00 0.00
6:52 pm 18:52 Cloudy 66 18.9 57 13.9 73 73 NE 12 19 29.80 1009 10 16 0.00 0.00
7:52 pm 19:52 Cloudy 63 17.2 56 13.3 78 78 NE 10 17 29.82 1010 10 16 0.00 0.00
8:52 pm 20:52 Cloudy 63 17.2 56 13.3 78 78 ENE 7 11 29.84 1011 10 16 0.00 0.00
9:52 pm 21:52 Cloudy 62 16.7 56 13.3 80 80 E 7 11 29.83 1010 10 16 0.00 0.00
10:52 pm 22:52 Cloudy 61 16.1 56 13.3 84 84 E 7 11 29.83 1010 10 16 0.00 0.00
11:52 pm 23:52 Cloudy with Light Rain 61 16.1 56 13.3 84 84 Calm 29.84 1011 9 14 0.00 0.00

Powered by AerisWeather